Maryland Science Center, MD

10:23 PM EST on December 11, 2019 (GMT -0500)
Maryland Science Center

Weather History for KDMH - October, 2019

Change the Weather History Date:

Saturday, October 5, 2019

  Actual Average Record
Temperature  
Mean Temperature 58 °F 64 °F  
Max Temperature 68 °F 72 °F 89 °F (2013)
Min Temperature 48 °F 56 °F 44 °F (2014)
Degree Days  
Heating Degree Days 7 3  
Month to date heating degree days 7 15  
Since 1 July heating degree days 7 33  
Cooling Degree Days 0 2  
Month to date cooling degree days 44 14  
Year to date cooling degree days 2033 1639  
Growing Degree Days 8 (Base 50)    
Moisture  
Dew Point 42 °F    
Average Humidity 54    
Maximum Humidity 66    
Minimum Humidity 42    
Precipitation  
Precipitation 0.00 in 0.11 in 0.17 in (2006)
Month to date precipitation 0.00 0.56  
Year to date precipitation 30.87 32.02  
Sea Level Pressure  
Sea Level Pressure 30.38 in    
Wind  
Wind Speed - (North)    
Max Wind Speed -    
Max Gust Speed -    
T = Trace of Precipitation, MM = Missing Value Source: NWS Daily Summary

Daily Weather History Graph

Daily Weather History Graph

Search for Another Location

Airport or City:

Astronomy

Oct. 05, 2019 Rise Set
Actual Time 7:06 AM EDT 6:43 PM EDT
Civil Twilight 6:39 AM EDT 7:09 PM EDT
Nautical Twilight 6:08 AM EDT 7:40 PM EDT
Astronomical Twilight 5:37 AM EDT 8:11 PM EDT
Moon 2:27 PM EDT (10/5) No Moon Set
Length of Visible Light 12h 30m
Length of Day
11h 36m
Waxing Crescent, 50% of the Moon is Illuminated
Oct 5
Waxing Crescent
Oct 5
First Quarter
Oct 13
Full
Oct 21
Last Quarter
Oct 27
New

Hourly Weather History & Observations

Time (EDT) Temp. Dew Point Humidity Pressure Visibility Wind Dir Wind Speed Gust Speed Precip Events Conditions
12:54 AM 53.1 °F 39.9 °F 61% 30.37 in - North - - N/A   Unknown
1:54 AM 52.0 °F 39.9 °F 63% 30.38 in - North - - N/A   Unknown
2:54 AM 51.1 °F 39.0 °F 63% 30.37 in - North - - N/A   Unknown
3:54 AM 50.0 °F 37.9 °F 63% 30.38 in - North - - N/A   Unknown
4:54 AM 50.0 °F 37.9 °F 63% 30.39 in - North - - N/A   Unknown
5:54 AM 48.9 °F 37.9 °F 66% 30.39 in - North - - N/A   Unknown
6:54 AM 48.9 °F 37.9 °F 66% 30.40 in - North - - N/A   Unknown
7:54 AM 48.9 °F 37.9 °F 66% 30.42 in - North - - N/A   Unknown
8:54 AM 51.1 °F 37.9 °F 61% 30.44 in - North - - N/A   Unknown
10:54 AM 57.9 °F 41.0 °F 53% 30.44 in - North - - N/A   Unknown
11:54 AM 60.1 °F 43.0 °F 53% 30.43 in - North - - N/A   Unknown
12:54 PM 64.9 °F 44.1 °F 47% 30.42 in - North - - N/A   Unknown
1:54 PM 66.0 °F 44.1 °F 45% 30.39 in - North - - N/A   Unknown
2:54 PM 68.0 °F 44.1 °F 42% 30.37 in - North - - N/A   Unknown
3:54 PM 64.9 °F 42.1 °F 43% 30.35 in - North - - N/A   Unknown
4:54 PM 64.0 °F 43.0 °F 46% 30.35 in - North - - N/A   Unknown
6:54 PM 63.0 °F 43.0 °F 48% 30.33 in - North - - N/A   Unknown
7:54 PM 61.0 °F 44.1 °F 54% 30.33 in - North - - N/A   Unknown
8:54 PM 60.1 °F 45.0 °F 57% 30.34 in - North - - N/A   Unknown
9:54 PM 60.1 °F 46.0 °F 60% 30.34 in - North - - N/A   Unknown
10:54 PM 61.0 °F 48.9 °F 64% 30.34 in - North - - N/A   Unknown
11:54 PM 62.1 °F 50.0 °F 65% 30.33 in - North - - N/A   Unknown